Location: Góry Miechowskie
(50.3599°N, 20.1803°E)
Time: 03:12:45
(UTC+00:00)

SR - Pass Details

Date: 20 September 2024
Orbit: 578 x 855 km, 66.7° (Epoch: 04 October)

Event Time Altitude Azimuth Distance (km) Brightness Sun altitude
Rises 19:16:37 0° 320° (NW) 2,934 ? -24.2°
Reaches altitude 10° 19:18:51 10° 316° (NW) 2,059 ? -24.5°
Maximum altitude 19:23:25 56° 239° (WSW) 814 ? -25.1°
Enters shadow 19:23:55 53° 212° (SSW) 846 ? -25.2°
